{"data":{"norad_id":57673,"intl_designator":"2023-124L","name":"STARLINK-30316","alt_names":[],"object_type":"PAYLOAD","status":"ACTIVE","operator":null,"country":"US","launch_date":"2023-08-22","launch_site_code":"AFWTR","launch_vehicle":null,"mission":null,"orbit_class":"UNKNOWN","rcs_meters":null,"size_class":null,"mass_kg":null,"dimensions":null,"purposes":["comms"],"wikipedia_slug":null,"has_3d_model":false,"image_url":null,"decayed_at":null,"tle_current":{"epoch":"2026-05-25T04:12:29.325024Z","epoch_age_seconds":53126,"freshness":"FRESH","line1":"1 57673U 23124L   26145.17533941  .00000439  00000+0  26961-4 0  9994","line2":"2 57673  53.1610 211.8080 0000985  83.7594 276.3519 15.30190415155276","mean_motion":15.30190415,"eccentricity":9.85e-5,"inclination_deg":53.161,"raan_deg":211.808,"arg_perigee_deg":83.7594,"mean_anomaly_deg":276.3519,"bstar":2.6961e-5,"rev_number":15527,"period_min":94.105935175394,"perigee_km":474.56863065317,"apogee_km":475.91874664884,"semimajor_km":6853.380688651,"source":"CELESTRAK","updated_at":"2026-05-25T13:38:18.368698Z"}}}